Hourly Data Report for June 26, 2011

HALIFAX STANFIELD INT'L A
NOVA SCOTIA

44°52'48.060" N
63°30'00.050" W
145.40 m
8202250
71395
YHZ

Download Data

Hourly Data (June 2011)
Hourly Data Report for June 26, 2011
TIME
LST
Temp Definition
°C
Dew Point Definition
°C
Rel Hum Definition
%
Precip. Amount Definition
mm

Wind Dir Definition
10's deg

Wind Spd Definition
km/h
Visibility Definition
km
Stn Press Definition
kPa
Hmdx Definition


Wind Chill Definition


Weather Definition


00:00 12.0 11.7 98   16 15 0.2 99.56     Fog
01:00 12.1 11.6 97   13 15 0.2 99.53     Fog
02:00 12.1 11.6 97   14 9 0.4 99.53     Fog
03:00 12.1 11.7 97   14 9 0.4 99.50     Fog
04:00 12.1 11.7 97   14 15 0.2 99.48     Fog
05:00 12.2 11.8 97   15 11 0.2 99.48     Fog
06:00 12.6 12.2 97   17 6 0.2 99.50     Fog
07:00 13.5 13.0 97   14 9 0.2 99.50     Fog
08:00 13.9 13.5 97   14 9 0.2 99.54     Fog
09:00 14.8 14.0 95   15 7 0.2 99.57     Fog
10:00 15.4 14.7 96   16 13 1.2 99.57     Fog
11:00 16.0 15.2 95   20 11 1.6 99.57     Fog
12:00 17.4 15.9 91   20 7 3.2 99.59     Fog
13:00 19.1 16.5 85   23 6 11.3 99.59     Mostly Cloudy
14:00 20.9 16.8 77   22 7 24.1 99.57 26   Mostly Cloudy
15:00 21.7 16.6 73   24 15 24.1 99.52 27   Mostly Cloudy
16:00 21.9 16.2 70   28 7 24.1 99.53 27   Mostly Cloudy
17:00 22.5 16.3 68   31 9 24.1 99.52 27   Mostly Cloudy
18:00 21.9 16.4 71   29 7 24.1 99.53 27   Mostly Cloudy
19:00 20.2 16.9 81   1 7 24.1 99.56 25   Mostly Cloudy
20:00 19.0 16.3 84   2 6 24.1 99.59     Cloudy
21:00 18.1 15.8 86   36 6 24.1 99.67     Cloudy
22:00 16.9 15.0 89   34 6 24.1 99.70     Cloudy
23:00 15.6 14.2 91   34 7 24.1 99.70     Cloudy

Notes on Data Quality.

Legend

  • E = Estimated
  • M = Missing
  • NA = Not Available*
  • [empty] = Indicates an unobserved value
Date modified: